Flag for Austria Weather past 2 weeks in Linz, Upper Austria, Austria

32 °F

Passing clouds.

Feels Like: 32 °F
Forecast: 28 / 37 °F
Wind: 2 mph from North

Location: Linz / Hoersching-Flughafen

Current Time: Nov 26, 2015 at 2:00:47 AM

Latest Report: Nov 26, 2015 at 1:20 AM

Visibility: 5 mi

Pressure: 29.74 "Hg

Humidity: 93%

Dew point: 30 °F

Location of LinzLocation

Historic Weather in Linz — Graph


Linz temperature yesterday

Maximum temperature yesterday: 34 °F (at 1:50 PM)
Minimum temperature yesterday: 21 °F (at 5:20 AM)
Average temperature yesterday: 28 °F

Past Weeks' High & Low Weather Summary

High63 °F (Nov 18, 9:20 AM)100% (Nov 11, 11:50 PM)30.42 "Hg (Nov 11, 11:50 PM)
Low21 °F (Nov 25, 5:20 AM)45% (Nov 18, 11:50 AM)29.42 "Hg (Nov 21, 1:50 PM)
Average44 °F82%30.03 "Hg
* Reported Nov 11 12:50 AM — Nov 26 12:20 AM, Linz, Weather by CustomWeather, © 2015

Note: Actual official high and low records may vary slightly from our data, if they occured in-between our weather recording intervals... More about our weather records


Linz weather history for previous 24 hours

Time TempWeatherWind HumidityBarometerVisibility
12:20 AM
Thu, Nov 26
32 °FLight rain. Ice fog.1 mph93%29.74 "Hg3 mi
11:50 PM
Wed, Nov 25
30 °FPassing clouds.1 mph100%29.74 "Hg4 mi
11:20 PM30 °FPassing clouds.1 mph100%29.74 "Hg5 mi
10:50 PM30 °FLight snow. Passing clouds.1 mph100%29.77 "Hg4 mi
10:20 PM30 °FLight snow. Passing clouds.No wind100%29.77 "Hg3 mi
9:50 PM30 °FLight snow. Passing clouds.No wind100%29.77 "Hg2 mi
9:20 PM30 °FLight snow. Passing clouds.1 mph100%29.77 "Hg2 mi
8:50 PM30 °FLight snow. Passing clouds.No wind93%29.77 "Hg2 mi
8:20 PM30 °FLight snow. Passing clouds.No wind93%29.77 "Hg2 mi
7:50 PM30 °FLight snow. Passing clouds.No wind93%29.77 "Hg2 mi
7:20 PM30 °FLight snow. Partly cloudy.1 mph93%29.77 "Hg3 mi
6:50 PM30 °FLight snow. Partly cloudy.1 mph93%29.77 "Hg3 mi
6:20 PM30 °FLight snow. Partly cloudy.No wind93%29.77 "Hg2 mi
5:50 PM30 °FLight snow. Partly cloudy.2 mph86%29.77 "Hg3 mi
5:20 PM32 °FLight snow. Passing clouds.2 mph80%29.77 "Hg4 mi
4:50 PM32 °FLight snow. Passing clouds.3 mph75%29.77 "Hg6 mi
4:20 PM32 °FPartly cloudy.1 mph80%29.77 "HgN/A
3:50 PM32 °FBroken clouds.2 mph80%29.77 "HgN/A
3:20 PM34 °FBroken clouds.3 mph75%29.77 "HgN/A
2:50 PM32 °FBroken clouds.2 mph80%29.80 "HgN/A
2:20 PM34 °FBroken clouds.2 mph81%29.80 "HgN/A
1:50 PM34 °FBroken clouds.1 mph75%29.80 "HgN/A
1:20 PM32 °FBroken clouds.2 mph80%29.80 "HgN/A
12:50 PM32 °FBroken clouds.2 mph80%29.83 "HgN/A
12:20 PM32 °FBroken clouds.1 mph80%29.83 "HgN/A
11:50 AM30 °FBroken clouds.1 mph86%29.83 "HgN/A
11:20 AM30 °FBroken clouds.2 mph86%29.86 "HgN/A
10:50 AM30 °FBroken clouds.1 mph86%29.86 "HgN/A
10:20 AM28 °FPartly sunny.2 mph86%29.86 "HgN/A
9:50 AM28 °FBroken clouds.2 mph86%29.89 "HgN/A
9:20 AM28 °FPartly sunny.1 mph86%29.89 "HgN/A
8:50 AM27 °FPartly sunny.1 mph93%29.89 "HgN/A
7:50 AM25 °FPartly sunny.2 mph100%29.89 "HgN/A
7:20 AM25 °FPassing clouds.3 mph93%29.89 "HgN/A
6:50 AM25 °FPartly cloudy.1 mph93%29.89 "HgN/A
6:20 AM23 °FPartly cloudy.2 mph100%29.89 "HgN/A
5:50 AM23 °FPassing clouds.2 mph93%29.89 "HgN/A
5:20 AM21 °FPassing clouds.5 mph93%29.89 "HgN/A
4:50 AM23 °FClear.2 mph100%29.92 "Hg10 mi
4:20 AM23 °FPassing clouds.2 mph93%29.92 "Hg6 mi
3:50 AM23 °FPassing clouds.1 mph100%29.92 "Hg6 mi
3:20 AM23 °FPassing clouds.2 mph93%29.95 "Hg5 mi
2:50 AM23 °FCold.1 mph93%29.95 "Hg6 mi
2:20 AM23 °FCold.2 mph93%29.98 "HgN/A
Weather by CustomWeather, © 2015

See weather overviewHow to use our weather pages